Flag for Slovenia Weather past 2 weeks in Ljubljana, Slovenia

Now
40 °F

Chilly.


Feels Like: 37 °F
Forecast: 30 / 43 °F
Wind: 5 mph from East

Location: Ljubljana / Bezigrad

Current Time: Mar 5, 2015 at 4:19:57 AM

Latest Report: Mar 5, 2015 at 2:00 AM


Visibility: N/A

Pressure: 30.29 "Hg

Humidity: 65%

Dew point: 29 °F

Location of LjubljanaLocation

Historic Weather in Ljubljana — Graph

°F

Ljubljana temperature yesterday

Maximum temperature yesterday: 52 °F (at 2:00 PM)
Minimum temperature yesterday: 33 °F (at 3:00 AM)
Average temperature yesterday: 41 °F

Past Weeks' High & Low Weather Summary

 TemperatureHumidityPressure
High55 °F (Mar 3, 4:00 PM)100% (Mar 3, 9:00 AM)30.76 "Hg (Mar 3, 9:00 AM)
Low24 °F (Feb 19, 7:00 AM)34% (Mar 3, 4:00 PM)29.66 "Hg (Feb 24, 5:00 AM)
Average41 °F76%30.06 "Hg
* Reported Feb 18 2:00 AM — Mar 5 2:00 AM, Ljubljana, Weather by CustomWeather, © 2015

Note: Actual official high and low records may vary slightly from our data, if they occured in-between our weather recording intervals... More about our weather records

Advertising

Ljubljana weather history for previous 24 hours

 ConditionsComfort  
Time TempWeatherWind HumidityBarometerVisibility
2:00 AM
Thu, Mar 5
40 °FChilly.5 mph65%30.29 "HgN/A
1:00 AM40 °FChilly.5 mph71%30.30 "HgN/A
12:00 AM38 °FChilly.3 mph80%30.29 "HgN/A
11:00 PM
Wed, Mar 4
38 °FChilly.3 mph85%30.30 "HgN/A
9:00 PM41 °FLight rain. Overcast.5 mph74%30.26 "Hg12 mi
8:00 PM43 °FQuite cool.6 mph69%30.24 "HgN/A
7:00 PM45 °FLight rain. Overcast.3 mph73%30.23 "Hg12 mi
6:00 PM46 °FLight rain. Overcast.2 mph65%30.18 "Hg12 mi
5:00 PM47 °FOvercast.2 mph61%30.15 "Hg19 mi
4:00 PM49 °FCool.3 mph62%30.14 "HgN/A
3:00 PM50 °FOvercast.3 mph56%30.13 "Hg19 mi
2:00 PM52 °FOvercast.2 mph49%30.13 "Hg19 mi
1:00 PM49 °FOvercast.1 mph51%30.15 "Hg19 mi
12:00 PM46 °FOvercast.2 mph55%30.19 "Hg25 mi
11:00 AM45 °FPartly sunny.1 mph58%30.19 "Hg31 mi
10:00 AM42 °FPartly sunny.1 mph65%30.21 "Hg9 mi
9:00 AM36 °FPartly sunny.1 mph75%30.24 "Hg9 mi
8:00 AM35 °FPartly sunny.1 mph84%30.25 "Hg31 mi
7:00 AM33 °FOvercast.No wind87%30.24 "Hg31 mi
6:00 AM33 °FOvercast.1 mph88%30.24 "Hg19 mi
5:00 AM34 °FChilly.No wind86%30.26 "HgN/A
4:00 AM33 °FChilly.1 mph88%30.26 "HgN/A
Weather by CustomWeather, © 2015

See weather overviewHow to use our weather pages